DLH777 KLAS-KLAX

Flight info

Callsign DLH777
Flight time 0h 38m
Altitude 28000
Route RADYR2 BLAQQ SHTNR ANJLL4
Aircraft A346/H-SDE2E3FGHIJ3J4J5M1RWXY/LB1D1

Departure

Time 2026-05-07 06:31
Airport Harry Reid International Airport (KLAS)

Arrival

Time 2026-05-07 07:09
Airport Los Angeles International Airport (KLAX)
Time Latitude Longitude Altitude Speed Heading
2026-05-07 05:31 36.08526 -115.13443 2101 ft 0 kts
2026-05-07 06:17 36.08514 -115.13443 2102 ft 4 kts
2026-05-07 06:17 36.08488 -115.13443 2102 ft 2 kts
2026-05-07 06:17 36.08467 -115.13445 2101 ft 4 kts 18°
2026-05-07 06:17 36.08450 -115.13458 2103 ft 4 kts 52°
2026-05-07 06:18 36.08443 -115.13479 2103 ft 4 kts 88°
2026-05-07 06:18 36.08443 -115.13511 2101 ft 4 kts 90°
2026-05-07 06:18 36.08443 -115.13532 2101 ft 0 kts 90°
2026-05-07 06:18 36.08443 -115.13533 2101 ft 0 kts 90°
2026-05-07 06:22 36.08442 -115.13510 2101 ft 8 kts 101°
2026-05-07 06:22 36.08355 -115.13369 2101 ft 13 kts 133°
2026-05-07 06:22 36.08268 -115.13299 2099 ft 17 kts 169°
2026-05-07 06:23 36.08133 -115.13292 2096 ft 19 kts 180°
2026-05-07 06:23 36.08003 -115.13292 2096 ft 18 kts 180°
2026-05-07 06:23 36.07946 -115.13292 2096 ft 1 kts 180°
2026-05-07 06:23 36.07940 -115.13292 2096 ft 0 kts 180°
2026-05-07 06:24 36.07938 -115.13292 2096 ft 2 kts 180°
2026-05-07 06:24 36.07903 -115.13292 2096 ft 7 kts 180°
2026-05-07 06:24 36.07847 -115.13279 2096 ft 9 kts 146°
2026-05-07 06:25 36.07828 -115.13200 2094 ft 12 kts 94°
2026-05-07 06:25 36.07827 -115.13072 2086 ft 18 kts 90°
2026-05-07 06:25 36.07827 -115.12908 2079 ft 16 kts 90°
2026-05-07 06:25 36.07827 -115.12798 2074 ft 12 kts 90°
2026-05-07 06:26 36.07827 -115.12703 2070 ft 10 kts 90°
2026-05-07 06:26 36.07828 -115.12630 2071 ft 4 kts 90°
2026-05-07 06:26 36.07828 -115.12581 2070 ft 4 kts 90°
2026-05-07 06:26 36.07828 -115.12552 2069 ft 3 kts 90°
2026-05-07 06:27 36.07828 -115.12502 2067 ft 8 kts 90°
2026-05-07 06:27 36.07829 -115.12414 2066 ft 11 kts 90°
2026-05-07 06:27 36.07829 -115.12319 2063 ft 8 kts 91°
2026-05-07 06:27 36.07812 -115.12248 2065 ft 5 kts 117°
2026-05-07 06:28 36.07785 -115.12203 2062 ft 5 kts 128°
2026-05-07 06:28 36.07780 -115.12195 2060 ft 0 kts 128°
2026-05-07 06:28 36.07775 -115.12186 2061 ft 3 kts 128°
2026-05-07 06:29 36.07749 -115.12145 2061 ft 8 kts 135°
2026-05-07 06:29 36.07706 -115.12119 2058 ft 8 kts 170°
2026-05-07 06:29 36.07675 -115.12121 2057 ft 1 kts 191°
2026-05-07 06:29 36.07646 -115.12138 2062 ft 6 kts 217°
2026-05-07 06:30 36.07623 -115.12177 2060 ft 9 kts 248°
2026-05-07 06:30 36.07629 -115.12273 2062 ft 8 kts 284°
2026-05-07 06:30 36.07639 -115.12334 2063 ft 0 kts 274°
2026-05-07 06:31 36.07640 -115.12352 2065 ft 17 kts 273°
2026-05-07 06:31 36.07642 -115.12941 2084 ft 114 kts 270°
2026-05-07 06:31 36.07641 -115.14243 2190 ft 179 kts 268°
2026-05-07 06:31 36.07648 -115.15810 3122 ft 184 kts 269°
2026-05-07 06:32 36.07653 -115.17379 4222 ft 179 kts 270°
2026-05-07 06:32 36.07653 -115.18943 4888 ft 188 kts 270°
2026-05-07 06:32 36.07645 -115.20639 5395 ft 206 kts 267°
2026-05-07 06:32 36.07452 -115.22470 5935 ft 223 kts 261°
2026-05-07 06:33 36.07081 -115.24428 6440 ft 246 kts 247°
2026-05-07 06:33 36.06033 -115.26174 7035 ft 263 kts 217°
2026-05-07 06:33 36.04347 -115.27215 7704 ft 280 kts 200°
2026-05-07 06:33 36.02489 -115.28014 8462 ft 292 kts 199°
2026-05-07 06:34 36.00547 -115.28835 9449 ft 297 kts 198°
2026-05-07 06:34 35.98522 -115.29561 10439 ft 303 kts 194°
2026-05-07 06:34 35.96412 -115.30125 11134 ft 318 kts 191°
2026-05-07 06:34 35.94182 -115.30667 11731 ft 336 kts 191°
2026-05-07 06:35 35.91812 -115.31238 12290 ft 356 kts 191°
2026-05-07 06:35 35.89323 -115.31840 12827 ft 375 kts 191°
2026-05-07 06:35 35.86739 -115.32470 13390 ft 392 kts 191°
2026-05-07 06:35 35.84029 -115.33135 14176 ft 400 kts 191°
2026-05-07 06:36 35.81286 -115.33807 15045 ft 405 kts 191°
2026-05-07 06:36 35.78503 -115.34489 15906 ft 410 kts 190°
2026-05-07 06:36 35.75686 -115.35179 16754 ft 416 kts 190°
2026-05-07 06:36 35.72829 -115.35878 17597 ft 421 kts 190°
2026-05-07 06:37 35.69936 -115.36585 18427 ft 427 kts 189°
2026-05-07 06:37 35.67005 -115.37300 19145 ft 432 kts 189°
2026-05-07 06:37 35.65007 -115.37786 19625 ft 436 kts 189°
2026-05-07 06:37 35.61979 -115.38349 20207 ft 444 kts 184°
2026-05-07 06:38 35.58915 -115.38578 20840 ft 449 kts 179°
2026-05-07 06:38 35.55783 -115.38473 21563 ft 452 kts 175°
2026-05-07 06:38 35.52633 -115.38237 22287 ft 457 kts 174°
2026-05-07 06:38 35.49457 -115.37980 23070 ft 459 kts 174°
2026-05-07 06:39 35.46266 -115.37913 23965 ft 459 kts 182°
2026-05-07 06:39 35.43128 -115.38584 24821 ft 458 kts 194°
2026-05-07 06:39 35.40163 -115.39988 25675 ft 457 kts 205°
2026-05-07 06:39 35.37341 -115.41769 26535 ft 455 kts 207°
2026-05-07 06:40 35.34553 -115.43606 27291 ft 455 kts 208°
2026-05-07 06:40 35.31748 -115.45451 27847 ft 459 kts 207°
2026-05-07 06:40 35.28915 -115.47292 28084 ft 461 kts 207°
2026-05-07 06:40 35.26071 -115.49121 28081 ft 462 kts 207°
2026-05-07 06:41 35.20364 -115.52758 28086 ft 462 kts 207°
2026-05-07 06:41 35.14715 -115.56436 28080 ft 471 kts 211°
2026-05-07 06:42 35.11979 -115.58753 28091 ft 488 kts 218°
2026-05-07 06:42 35.09426 -115.61545 28083 ft 495 kts 225°
2026-05-07 06:42 35.04670 -115.67624 28060 ft 496 kts 227°
2026-05-07 06:43 34.99942 -115.73754 28060 ft 496 kts 227°
2026-05-07 06:43 34.95186 -115.79847 28043 ft 496 kts 226°
2026-05-07 06:44 34.90405 -115.85933 28040 ft 496 kts 226°
2026-05-07 06:44 34.85623 -115.92003 28025 ft 496 kts 226°
2026-05-07 06:45 34.80834 -115.98068 28022 ft 496 kts 226°
2026-05-07 06:45 34.76044 -116.04135 28021 ft 499 kts 227°
2026-05-07 06:46 34.71255 -116.10244 28021 ft 499 kts 227°
2026-05-07 06:46 34.66493 -116.16309 28026 ft 499 kts 227°
2026-05-07 06:47 34.61695 -116.22405 28026 ft 499 kts 227°
2026-05-07 06:47 34.56857 -116.28532 28021 ft 499 kts 227°
2026-05-07 06:48 34.52081 -116.34575 28027 ft 499 kts 227°
2026-05-07 06:48 34.49663 -116.37631 27704 ft 500 kts 227°
2026-05-07 06:48 34.47252 -116.40675 27220 ft 496 kts 227°
2026-05-07 06:49 34.44865 -116.43686 26516 ft 492 kts 227°
2026-05-07 06:49 34.42620 -116.46783 25730 ft 486 kts 233°
2026-05-07 06:49 34.40717 -116.50129 25020 ft 480 kts 240°
2026-05-07 06:49 34.39141 -116.53655 24403 ft 471 kts 245°
2026-05-07 06:50 34.37714 -116.57163 24088 ft 456 kts 246°
2026-05-07 06:50 34.36357 -116.60538 24028 ft 435 kts 246°
2026-05-07 06:50 34.35054 -116.63747 24028 ft 414 kts 246°
2026-05-07 06:50 34.33801 -116.66801 24024 ft 394 kts 246°
2026-05-07 06:51 34.32603 -116.69736 23892 ft 390 kts 246°
2026-05-07 06:51 34.31408 -116.72722 23378 ft 396 kts 246°
2026-05-07 06:51 34.30196 -116.75761 22672 ft 401 kts 246°
2026-05-07 06:51 34.28975 -116.78809 22114 ft 402 kts 246°
2026-05-07 06:52 34.27753 -116.81849 21630 ft 402 kts 246°
2026-05-07 06:52 34.26524 -116.84898 21123 ft 405 kts 246°
2026-05-07 06:52 34.25283 -116.87971 20625 ft 407 kts 246°
2026-05-07 06:52 34.24042 -116.91035 20176 ft 404 kts 245°
2026-05-07 06:53 34.22809 -116.94083 19700 ft 402 kts 245°
2026-05-07 06:53 34.21605 -116.97129 19219 ft 400 kts 248°
2026-05-07 06:53 34.20579 -117.00240 18832 ft 395 kts 252°
2026-05-07 06:53 34.19721 -117.03334 18466 ft 392 kts 254°
2026-05-07 06:54 34.18882 -117.06462 18054 ft 390 kts 254°
2026-05-07 06:54 34.18050 -117.09575 17665 ft 387 kts 254°
2026-05-07 06:54 34.17211 -117.12688 17199 ft 387 kts 253°
2026-05-07 06:54 34.16376 -117.15769 16915 ft 385 kts 253°
2026-05-07 06:55 34.15528 -117.18868 16487 ft 385 kts 253°
2026-05-07 06:55 34.14689 -117.21922 16151 ft 380 kts 253°
2026-05-07 06:55 34.13857 -117.24936 15754 ft 377 kts 252°
2026-05-07 06:55 34.13028 -117.27937 15345 ft 375 kts 252°
2026-05-07 06:56 34.12206 -117.30914 14940 ft 373 kts 252°
2026-05-07 06:56 34.11384 -117.33887 14549 ft 371 kts 252°
2026-05-07 06:56 34.10570 -117.36832 14176 ft 369 kts 252°
2026-05-07 06:56 34.09796 -117.39795 13694 ft 366 kts 254°
2026-05-07 06:57 34.09067 -117.42732 13085 ft 364 kts 254°
2026-05-07 06:57 34.08346 -117.45654 12710 ft 360 kts 254°
2026-05-07 06:57 34.07634 -117.48525 12353 ft 355 kts 254°
2026-05-07 06:57 34.06925 -117.51357 12011 ft 350 kts 253°
2026-05-07 06:58 34.06214 -117.54144 11690 ft 345 kts 253°
2026-05-07 06:58 34.05510 -117.56896 11317 ft 342 kts 253°
2026-05-07 06:58 34.04808 -117.59631 10988 ft 339 kts 253°
2026-05-07 06:58 34.04113 -117.62344 10701 ft 336 kts 253°
2026-05-07 06:59 34.03427 -117.65017 10374 ft 329 kts 253°
2026-05-07 06:59 34.02760 -117.67615 10130 ft 319 kts 253°
2026-05-07 06:59 34.02204 -117.70126 10010 ft 312 kts 259°
2026-05-07 06:59 34.01885 -117.72715 9712 ft 311 kts 267°
2026-05-07 07:00 34.01746 -117.75302 9314 ft 306 kts 268°
2026-05-07 07:00 34.01613 -117.77845 8955 ft 302 kts 268°
2026-05-07 07:00 34.01448 -117.80354 8586 ft 299 kts 266°
2026-05-07 07:00 34.01247 -117.82842 8244 ft 296 kts 265°
2026-05-07 07:01 34.01020 -117.85298 7932 ft 293 kts 264°
2026-05-07 07:01 34.00772 -117.87745 7611 ft 290 kts 264°
2026-05-07 07:01 34.00516 -117.90138 7507 ft 287 kts 264°
2026-05-07 07:01 34.00252 -117.92537 7477 ft 288 kts 263°
2026-05-07 07:02 33.99986 -117.94922 7280 ft 287 kts 263°
2026-05-07 07:02 33.99721 -117.97298 6934 ft 285 kts 263°
2026-05-07 07:02 33.99457 -117.99667 6579 ft 283 kts 263°
2026-05-07 07:02 33.99199 -118.02008 6163 ft 279 kts 263°
2026-05-07 07:03 33.98950 -118.04292 5807 ft 271 kts 263°
2026-05-07 07:03 33.98708 -118.06537 5474 ft 265 kts 263°
2026-05-07 07:03 33.98473 -118.08723 5176 ft 256 kts 264°
2026-05-07 07:03 33.98251 -118.10807 4856 ft 245 kts 264°
2026-05-07 07:04 33.98039 -118.12814 4540 ft 236 kts 264°
2026-05-07 07:04 33.97835 -118.14767 4221 ft 228 kts 264°
2026-05-07 07:04 33.97643 -118.16604 3943 ft 220 kts 264°
2026-05-07 07:04 33.97457 -118.18389 3708 ft 209 kts 263°
2026-05-07 07:05 33.97280 -118.20084 3434 ft 198 kts 263°
2026-05-07 07:05 33.97114 -118.21682 3139 ft 186 kts 263°
2026-05-07 07:05 33.96959 -118.23180 2871 ft 174 kts 263°
2026-05-07 07:05 33.96814 -118.24578 2637 ft 162 kts 263°
2026-05-07 07:06 33.96679 -118.25884 2422 ft 154 kts 263°
2026-05-07 07:06 33.96548 -118.27158 2243 ft 153 kts 263°
2026-05-07 07:06 33.96417 -118.28427 2068 ft 153 kts 263°
2026-05-07 07:06 33.96286 -118.29697 1873 ft 153 kts 263°
2026-05-07 07:07 33.96154 -118.30986 1675 ft 153 kts 263°
2026-05-07 07:07 33.96023 -118.32255 1461 ft 152 kts 263°
2026-05-07 07:07 33.95894 -118.33514 1254 ft 151 kts 263°
2026-05-07 07:07 33.95765 -118.34768 1050 ft 149 kts 262°
2026-05-07 07:08 33.95639 -118.36004 840 ft 147 kts 262°
2026-05-07 07:08 33.95515 -118.37209 646 ft 144 kts 263°
2026-05-07 07:08 33.95393 -118.38405 460 ft 143 kts 263°
2026-05-07 07:08 33.95273 -118.39594 263 ft 143 kts 263°
2026-05-07 07:09 33.95153 -118.40766 111 ft 129 kts 263°
2026-05-07 07:09 33.95073 -118.41537 116 ft 69 kts 263°
2026-05-07 07:09 33.95003 -118.42058 112 ft 53 kts 250°
2026-05-07 07:09 33.94830 -118.42274 113 ft 27 kts 194°
2026-05-07 07:10 33.94701 -118.42240 109 ft 17 kts 125°
2026-05-07 07:10 33.94690 -118.42191 110 ft 0 kts 87°
2026-05-07 07:11 33.94692 -118.42152 109 ft 15 kts 84°
2026-05-07 07:11 33.94706 -118.42011 107 ft 19 kts 83°
2026-05-07 07:11 33.94721 -118.41858 106 ft 20 kts 83°
2026-05-07 07:12 33.94738 -118.41679 106 ft 23 kts 83°
2026-05-07 07:12 33.94756 -118.41506 108 ft 13 kts 83°
2026-05-07 07:12 33.94739 -118.41408 107 ft 15 kts 127°
2026-05-07 07:12 33.94657 -118.41298 105 ft 20 kts 146°
2026-05-07 07:13 33.94533 -118.41247 105 ft 12 kts 128°
2026-05-07 07:13 33.94533 -118.41199 105 ft 5 kts 88°
2026-05-07 07:13 33.94528 -118.41160 106 ft 0 kts 102°